[[{"header":{"parameterUnit":"m.s-1","parameterCategory":1,"la1":30.2991,"la2":30.254,"lo1":-89.0895,"lo2":-89.0444,"dy":0.0017,"dx":0.0017,"nx":28,"ny":28,"refTime":"2023-09-25T03:00:00:Z","depth":0,"parameterNumber":2,"parameterNumberName":"U-component_of_WINDS"},"data":[0,0,0,0,0,0,0,0,0,0,0,0,0,0,0,0,0,0,0,0,0,0,0,0,0,0,0,0,0,0,0,0,0,0,0,0,0,0,0,0,0,0,0,0,0,0,0,0,0,0,0,0,0,0,0,0,0,0,1.7028,1.7029,0,1.7088,1.7088,1.7089,1.7138,1.7138,1.7139,1.7139,1.72,1.7202,1.7203,0,0,0,0,0,0,0,0,0,0,0,0,0,1.6958,1.6959,1.7028,1.7029,1.703,1.7088,1.7088,1.7089,1.7137,1.7138,1.7139,1.7139,1.72,1.7201,1.7203,0,0,0,0,0,0,0,0,0,0,0,0,0,1.7,1.6959,1.7028,1.7061,1.7064,1.7087,1.7088,1.7089,1.7137,1.7138,1.7139,1.714,1.72,1.7201,1.7203,1.7199,0,0,1.7208,1.7209,0,0,0,0,0,0,0,0,1.6997,1.7002,1.7055,1.7058,1.7062,1.7106,1.7086,1.7126,1.7137,1.711,1.7139,1.714,1.7168,1.7173,1.7182,1.7202,1.7204,1.7208,1.721,1.721,1.7211,0,0,0,0,0,0,0,1.6994,1.7,1.7052,1.7056,1.706,1.7073,1.708,1.7094,1.7134,1.7112,1.7116,1.7122,1.7171,1.718,1.7184,1.7205,1.7208,1.721,1.7211,1.7212,1.7226,1.7225,0,0,0,0,0,0,1.6986,1.6997,1.705,1.7053,1.7031,1.7074,1.7081,1.7091,1.7134,1.7141,1.7121,1.7124,1.7177,1.7182,1.7186,1.7185,1.721,1.7212,1.7213,1.7226,1.7226,1.7225,0,0,0,0,0,0,1.6985,1.6991,1.7047,1.7026,1.7035,1.7074,1.7085,1.7092,1.7102,1.7141,1.7149,1.7124,1.7178,1.7184,1.7196,1.7188,1.7213,1.7214,1.7227,1.7226,1.7225,1.7182,0,0,0,0,0,0,1.6982,1.699,1.6988,1.7026,1.7036,1.7055,1.7084,1.7093,1.7105,1.7109,1.7146,1.7152,1.7179,1.7193,1.7197,1.7191,1.7216,1.7228,1.7227,1.7226,1.7184,1.718,1.7176,0,0,0,0,0,1.698,1.6973,1.6988,1.6994,1.7034,1.7054,1.706,1.709,1.7104,1.7103,1.7128,1.7151,1.7188,1.7194,1.7199,1.7193,1.7229,1.7227,1.7226,1.7186,1.7181,1.7176,0,0,0,0,0,0,1.6933,1.6979,1.6995,1.7001,1.7023,1.7062,1.7062,1.7083,1.7103,1.7106,1.7143,1.7151,1.7159,1.7177,1.7182,1.7192,1.7212,1.7211,1.718,1.7175,1.717,1.7166,1.7217,0,0,0,0,0,1.6923,1.6935,1.6975,1.6976,1.6986,1.7022,1.7032,1.7054,1.7079,1.7089,1.7115,1.7139,1.7156,1.7166,1.7184,1.7188,1.7197,1.7186,1.7182,1.7178,1.7177,1.7182,1.7178,1.722,1.722,1.722,0,0,1.6903,1.693,1.6935,1.6967,1.6987,1.7,1.703,1.7041,1.7051,1.7091,1.7103,1.7124,1.7153,1.716,1.7165,1.7176,1.7168,1.7176,1.7173,1.7174,1.718,1.7176,1.7172,1.7219,1.7219,1.7219,0,0,1.6873,1.6894,1.6898,1.6917,1.6948,1.6972,1.6973,1.7009,1.7024,1.7038,1.7068,1.7081,1.7109,1.7129,1.7143,1.7122,1.7144,1.7127,1.7104,1.7108,1.7105,1.7102,1.7096,1.7093,1.7126,1.7126,1.7126,0,1.6844,1.6864,1.6897,1.6907,1.6921,1.6958,1.6962,1.698,1.7014,1.7023,1.7035,1.7073,1.7095,1.7108,1.7103,1.7113,1.7116,1.7123,1.7103,1.7101,1.7098,1.7093,1.709,1.7124,1.7124,1.7124,1.7124,0,1.6827,1.6841,1.684,1.6873,1.6887,1.6894,1.6929,1.6939,1.696,1.6983,1.6998,1.7026,1.705,1.7055,1.7076,1.7072,1.7078,1.7096,1.7116,1.7092,1.7087,1.7085,1.712,1.7121,1.7122,1.7122,0,0,1.6768,1.6821,1.682,1.6836,1.6873,1.6884,1.6894,1.6918,1.6927,1.695,1.6959,1.6983,1.7,1.7016,1.7039,1.7043,1.7026,1.706,1.7061,1.7053,1.7025,1.7012,1.7009,1.7041,1.704,1.704,1.7023,0,1.6745,1.6764,1.6795,1.6804,1.6817,1.6853,1.6862,1.6886,1.6908,1.6923,1.6948,1.6965,1.6985,1.6995,1.7,1.7027,1.7021,1.7028,1.7051,1.7051,1.7042,1.7006,1.6992,1.6974,1.7021,1.7021,1.7021,0,1.6719,1.6741,1.6751,1.6789,1.6796,1.6803,1.6829,1.6842,1.6871,1.6887,1.6905,1.6931,1.6944,1.6962,1.6981,1.6986,1.6997,1.7011,1.7011,1.7015,1.7034,1.7009,1.6969,1.6966,1.7018,1.7018,1.7018,0,1.6676,1.6708,1.6719,1.6731,1.6775,1.6779,1.6798,1.6827,1.684,1.6863,1.6872,1.6896,1.6909,1.6927,1.6959,1.6969,1.6975,1.6995,1.6989,1.6988,1.6988,1.6988,1.695,1.6995,1.6995,1.6995,1.6995,0,1.6647,1.6652,1.67,1.6707,1.6714,1.675,1.6757,1.6779,1.6805,1.6817,1.6849,1.686,1.6901,1.6917,1.6942,1.6954,1.696,1.6974,1.698,1.6971,1.6969,1.6979,1.6981,1.6994,1.6995,1.6995,1.6995,0,1.66,1.6632,1.6646,1.6687,1.6697,1.6701,1.6736,1.6744,1.6769,1.6784,1.679,1.6828,1.6849,1.6883,1.6913,1.693,1.6938,1.6949,1.6928,1.6932,1.6924,1.6924,1.6891,1.6889,1.6934,1.6934,1.6933,0,1.6579,1.6584,1.6625,1.6636,1.6653,1.667,1.6684,1.672,1.6733,1.6767,1.6771,1.6794,1.6814,1.6846,1.6877,1.69,1.6912,1.6899,1.6916,1.6907,1.6913,1.6912,1.6913,1.6895,1.6894,1.6894,1.6893,0,1.6539,1.6555,1.6574,1.6598,1.6614,1.6635,1.6658,1.6665,1.6706,1.672,1.6741,1.6757,1.6789,1.6811,1.684,1.6859,1.6883,1.6888,1.6888,1.6878,1.6866,1.6873,1.6918,1.6888,1.6889,1.6889,1.689,1.689,1.6505,1.6511,1.6542,1.6562,1.6583,1.6604,1.6614,1.6641,1.6659,1.6687,1.6708,1.6728,1.6758,1.6799,1.6817,1.6834,1.6845,1.6844,1.6844,1.6844,1.684,1.6864,1.6839,1.6839,1.684,1.684,1.684,0,1.6467,1.6488,1.6507,1.6538,1.6554,1.6576,1.6603,1.6615,1.6632,1.6658,1.6678,1.6703,1.6726,1.6759,1.6785,1.6792,1.6804,1.6797,1.6797,1.6801,1.6829,1.6827,1.6787,1.6787,1.6787,1.6787,1.6787,1.6787,1.6449,1.6462,1.6481,1.6506,1.6528,1.6548,1.6561,1.6581,1.6602,1.6629,1.6648,1.667,1.6699,1.6727,1.6749,1.6758,1.6766,1.6757,1.6769,1.6795,1.6799,1.6804,1.6802,1.6758,1.6758,1.6741,1.674,1.674]},{"header":{"parameterUnit":"m.s-1","parameterCategory":1,"la1":30.2991,"la2":30.254,"lo1":-89.0895,"lo2":-89.0444,"dy":0.0017,"dx":0.0017,"nx":28,"ny":28,"refTime":"2023-09-25T03:00:00:Z","depth":0,"parameterNumber":3,"parameterNumberName":"V-component_of_WINDS"},"data":[0,0,0,0,0,0,0,0,0,0,0,0,0,0,0,0,0,0,0,0,0,0,0,0,0,0,0,0,0,0,0,0,0,0,0,0,0,0,0,0,0,0,0,0,0,0,0,0,0,0,0,0,0,0,0,0,0,0,0.2929,0.2931,0,0.3078,0.3079,0.3081,0.313,0.3129,0.3128,0.3128,0.3279,0.3283,0.3288,0,0,0,0,0,0,0,0,0,0,0,0,0,0.2681,0.2685,0.2929,0.2931,0.2933,0.3077,0.308,0.3082,0.313,0.3129,0.3128,0.3127,0.3277,0.3283,0.3288,0,0,0,0,0,0,0,0,0,0,0,0,0,0.2805,0.2686,0.2929,0.2974,0.298,0.3077,0.308,0.3082,0.313,0.3129,0.3128,0.3127,0.3275,0.3282,0.3289,0.3351,0,0,0.331,0.3313,0,0,0,0,0,0,0,0,0.2798,0.2814,0.2966,0.2971,0.2978,0.3084,0.3047,0.3172,0.313,0.3073,0.3128,0.3127,0.3215,0.3227,0.3257,0.3359,0.3365,0.3311,0.3315,0.3318,0.332,0,0,0,0,0,0,0,0.2789,0.2808,0.2988,0.2968,0.2975,0.2985,0.3002,0.3071,0.3147,0.3078,0.3082,0.3099,0.3218,0.325,0.3261,0.3367,0.3311,0.3317,0.3321,0.3324,0.3521,0.3522,0,0,0,0,0,0,0.2773,0.28,0.2983,0.2992,0.2883,0.299,0.3009,0.3051,0.3147,0.3161,0.3099,0.31,0.3238,0.3252,0.3266,0.3342,0.3318,0.3325,0.3329,0.352,0.3521,0.3522,0,0,0,0,0,0,0.2768,0.2789,0.2977,0.2897,0.2922,0.2996,0.3042,0.3054,0.3087,0.3163,0.3177,0.3119,0.3238,0.3256,0.3329,0.3348,0.3328,0.3334,0.3519,0.352,0.3522,0.3496,0,0,0,0,0,0,0.276,0.2787,0.2813,0.2898,0.2926,0.3039,0.3044,0.3058,0.3099,0.3101,0.3185,0.3198,0.3239,0.3318,0.3335,0.3357,0.3339,0.3517,0.352,0.3521,0.3496,0.3497,0.3498,0,0,0,0,0,0.2751,0.2801,0.2814,0.2836,0.2961,0.304,0.3056,0.3103,0.31,0.3126,0.3174,0.3195,0.3342,0.3325,0.3345,0.3369,0.3516,0.3519,0.3521,0.3495,0.3497,0.3498,0,0,0,0,0,0,0.2718,0.2813,0.2829,0.2908,0.2965,0.3048,0.3083,0.3104,0.3164,0.3164,0.3219,0.3237,0.3304,0.3344,0.3322,0.3431,0.343,0.3437,0.3403,0.3405,0.3406,0.3395,0.3345,0,0,0,0,0,0.272,0.2778,0.2857,0.2919,0.2946,0.3009,0.3046,0.3076,0.3138,0.3162,0.3216,0.3274,0.3333,0.3371,0.343,0.3501,0.3517,0.3527,0.3527,0.3528,0.3533,0.3568,0.3572,0.353,0.353,0.353,0,0,0.2725,0.2783,0.2817,0.2913,0.2962,0.3017,0.303,0.309,0.3131,0.3172,0.3243,0.3283,0.3351,0.3421,0.3455,0.3457,0.3548,0.3531,0.3531,0.3536,0.3571,0.3575,0.3579,0.3532,0.3532,0.3532,0,0,0.2761,0.2813,0.2868,0.2915,0.2987,0.3027,0.3039,0.3118,0.3146,0.3218,0.3248,0.3296,0.3398,0.3444,0.3481,0.3527,0.3547,0.3544,0.355,0.3584,0.3587,0.359,0.3604,0.3609,0.3549,0.3549,0.3549,0,0.2758,0.2846,0.2893,0.2951,0.299,0.3027,0.3081,0.3124,0.3211,0.3237,0.3237,0.3361,0.341,0.3489,0.35,0.3529,0.3543,0.3536,0.3583,0.3587,0.359,0.3604,0.3609,0.3548,0.3548,0.3548,0.3548,0,0.2835,0.2895,0.293,0.3012,0.3056,0.3111,0.3164,0.3202,0.3227,0.3266,0.3335,0.3394,0.3463,0.3484,0.351,0.3565,0.3564,0.3572,0.3573,0.3592,0.3606,0.3612,0.3547,0.3547,0.3547,0.3548,0,0,0.286,0.2963,0.2975,0.3011,0.309,0.3136,0.319,0.3257,0.3287,0.3344,0.3389,0.3471,0.3478,0.3519,0.355,0.358,0.3608,0.3585,0.3587,0.3585,0.3668,0.3661,0.3666,0.3621,0.3622,0.3623,0.3662,0,0.2905,0.3006,0.3047,0.3128,0.3181,0.3213,0.326,0.3312,0.3348,0.3397,0.3437,0.3493,0.35,0.3524,0.3555,0.3598,0.3625,0.3596,0.3662,0.3664,0.3644,0.3674,0.3668,0.3702,0.3668,0.3669,0.367,0,0.2973,0.3029,0.3114,0.3182,0.3206,0.3247,0.3309,0.3356,0.3413,0.3437,0.348,0.3508,0.3563,0.3557,0.3632,0.3611,0.3639,0.3664,0.3666,0.3675,0.3668,0.3682,0.3714,0.3719,0.3679,0.3678,0.3678,0,0.2978,0.3075,0.3137,0.3167,0.3249,0.3276,0.3311,0.3368,0.3403,0.3457,0.348,0.3538,0.3571,0.3614,0.3655,0.3648,0.3724,0.3724,0.3744,0.3743,0.376,0.3759,0.3796,0.3779,0.3779,0.3779,0.3778,0,0.3025,0.3075,0.314,0.3179,0.3234,0.3279,0.3332,0.3369,0.3418,0.3462,0.3494,0.3534,0.3586,0.3632,0.3664,0.3719,0.3733,0.3753,0.3761,0.375,0.3747,0.377,0.3769,0.378,0.378,0.3779,0.3779,0,0.3041,0.3088,0.3157,0.3227,0.3245,0.3283,0.3342,0.3378,0.3414,0.3469,0.3484,0.354,0.3595,0.364,0.3713,0.3734,0.379,0.38,0.3771,0.3775,0.3792,0.3789,0.3846,0.3855,0.3831,0.3832,0.3832,0,0.3068,0.3107,0.3179,0.3211,0.3245,0.3296,0.3332,0.3376,0.3411,0.3477,0.3504,0.3561,0.361,0.3695,0.3741,0.3795,0.3806,0.3821,0.3814,0.38,0.3804,0.3801,0.3804,0.3822,0.3822,0.3822,0.3822,0,0.3108,0.3128,0.3179,0.3236,0.3277,0.3325,0.3373,0.3396,0.3448,0.3486,0.3542,0.3579,0.3651,0.3706,0.3764,0.3798,0.3818,0.3823,0.3831,0.3821,0.3802,0.381,0.3772,0.3823,0.3823,0.3823,0.3823,0.3823,0.313,0.3164,0.3219,0.3274,0.3314,0.3356,0.3393,0.3432,0.348,0.3542,0.3564,0.3621,0.3672,0.3752,0.3785,0.3829,0.3831,0.3842,0.3845,0.3847,0.3844,0.3794,0.3839,0.3839,0.3839,0.384,0.384,0,0.317,0.3206,0.3255,0.332,0.3362,0.3376,0.3428,0.3462,0.3511,0.3558,0.3603,0.3665,0.3717,0.3765,0.3819,0.3844,0.3854,0.3857,0.3855,0.3862,0.384,0.3828,0.3847,0.3847,0.3847,0.3847,0.3847,0.3847,0.3196,0.3254,0.3279,0.3355,0.3391,0.3447,0.3475,0.3513,0.355,0.3618,0.3661,0.3692,0.3738,0.3795,0.3842,0.3854,0.3872,0.3872,0.3886,0.3865,0.3864,0.3863,0.3851,0.3875,0.3875,0.3905,0.3905,0.3905]}]]